Year,Month,Day,Hour,Minute,Value (Times are PST for temperature in C)
2007,09,19,00,00,7.60
2007,09,19,00,01,7.60
2007,09,19,00,02,7.60
2007,09,19,00,03,7.60
2007,09,19,00,04,7.60
2007,09,19,00,05,7.60
2007,09,19,00,06,7.50
2007,09,19,00,07,7.50
2007,09,19,00,08,7.50
2007,09,19,00,09,7.50
2007,09,19,00,10,7.50
2007,09,19,00,11,7.50
2007,09,19,00,12,7.40
2007,09,19,00,13,7.40
2007,09,19,00,14,7.40
2007,09,19,00,15,7.40
2007,09,19,00,16,7.40
2007,09,19,00,17,7.40
2007,09,19,00,18,7.40
2007,09,19,00,19,7.30
2007,09,19,00,20,7.30
2007,09,19,00,21,7.30
2007,09,19,00,22,7.30
2007,09,19,00,23,7.20
2007,09,19,00,24,7.20
2007,09,19,00,25,7.20
2007,09,19,00,26,7.20
2007,09,19,00,27,7.20
2007,09,19,00,28,7.20
2007,09,19,00,29,7.20
2007,09,19,00,30,7.20
2007,09,19,00,31,7.20
2007,09,19,00,32,7.20
2007,09,19,00,33,7.20
2007,09,19,00,34,7.20
2007,09,19,00,35,7.20
2007,09,19,00,36,7.20
2007,09,19,00,37,7.20
2007,09,19,00,38,7.20
2007,09,19,00,39,7.20
2007,09,19,00,40,7.20
2007,09,19,00,41,7.20
2007,09,19,00,42,7.20
2007,09,19,00,43,7.10
2007,09,19,00,44,7.10
2007,09,19,00,45,7.10
2007,09,19,00,46,7.10
2007,09,19,00,47,7.10
2007,09,19,00,48,7.10
2007,09,19,00,49,7.10
2007,09,19,00,50,7.20
2007,09,19,00,51,7.20
2007,09,19,00,52,7.30
2007,09,19,00,53,7.30
2007,09,19,00,54,7.30
2007,09,19,00,55,7.30
2007,09,19,00,56,7.40
2007,09,19,00,57,7.40
2007,09,19,00,58,7.40
2007,09,19,00,59,7.40
2007,09,19,01,00,7.40
2007,09,19,01,01,7.40
2007,09,19,01,02,7.40
2007,09,19,01,03,7.40
2007,09,19,01,04,7.50
2007,09,19,01,05,7.50
2007,09,19,01,06,7.40
2007,09,19,01,07,7.40
2007,09,19,01,08,7.30
2007,09,19,01,09,7.30
2007,09,19,01,10,7.30
2007,09,19,01,11,7.20
2007,09,19,01,12,7.20
2007,09,19,01,13,7.20
2007,09,19,01,14,7.20
2007,09,19,01,15,7.20
2007,09,19,01,16,7.20
2007,09,19,01,17,7.20
2007,09,19,01,18,7.30
2007,09,19,01,19,7.30
2007,09,19,01,20,7.30
2007,09,19,01,21,7.30
2007,09,19,01,22,7.30
2007,09,19,01,23,7.30
2007,09,19,01,24,7.30
2007,09,19,01,25,7.30
2007,09,19,01,26,7.40
2007,09,19,01,27,7.40
2007,09,19,01,28,7.50
2007,09,19,01,29,7.60
2007,09,19,01,30,7.60
2007,09,19,01,31,7.70
2007,09,19,01,32,7.80
2007,09,19,01,33,7.90
2007,09,19,01,34,7.90
2007,09,19,01,35,8.00
2007,09,19,01,36,8.10
2007,09,19,01,37,8.30
2007,09,19,01,38,8.40
2007,09,19,01,39,8.50
2007,09,19,01,40,8.50
2007,09,19,01,41,8.50
2007,09,19,01,42,8.50
2007,09,19,01,43,8.50
2007,09,19,01,44,8.50
2007,09,19,01,45,8.50
2007,09,19,01,46,8.50
2007,09,19,01,47,8.50
2007,09,19,01,48,8.60
2007,09,19,01,49,8.60
2007,09,19,01,50,8.60
2007,09,19,01,51,8.60
2007,09,19,01,52,8.60
2007,09,19,01,53,8.60
2007,09,19,01,54,8.60
2007,09,19,01,55,8.60
2007,09,19,01,56,8.60
2007,09,19,01,57,8.60
2007,09,19,01,58,8.60
2007,09,19,01,59,8.60
2007,09,19,02,00,8.60
2007,09,19,02,01,8.60
2007,09,19,02,02,8.60
2007,09,19,02,03,8.60
2007,09,19,02,04,8.60
2007,09,19,02,05,8.70
2007,09,19,02,06,8.80
2007,09,19,02,07,8.90
2007,09,19,02,08,8.90
2007,09,19,02,09,9.00
2007,09,19,02,10,9.10
2007,09,19,02,11,9.20
2007,09,19,02,12,9.20
2007,09,19,02,13,9.30
2007,09,19,02,14,9.30
2007,09,19,02,15,9.40
2007,09,19,02,16,9.50
2007,09,19,02,17,9.60
2007,09,19,02,18,9.60
2007,09,19,02,19,9.60
2007,09,19,02,20,9.60
2007,09,19,02,21,9.70
2007,09,19,02,22,9.70
2007,09,19,02,23,9.80
2007,09,19,02,24,9.80
2007,09,19,02,25,9.90
2007,09,19,02,26,9.90
2007,09,19,02,27,9.90
2007,09,19,02,28,10.00
2007,09,19,02,29,10.00
2007,09,19,02,30,10.10
2007,09,19,02,31,10.10
2007,09,19,02,32,10.20
2007,09,19,02,33,10.20
2007,09,19,02,34,10.20
2007,09,19,02,35,10.20
2007,09,19,02,36,10.20
2007,09,19,02,37,10.20
2007,09,19,02,38,10.20
2007,09,19,02,39,10.20
2007,09,19,02,40,10.20
2007,09,19,02,41,10.20
2007,09,19,02,42,10.20
2007,09,19,02,43,10.10
2007,09,19,02,44,10.10
2007,09,19,02,45,10.10
2007,09,19,02,46,10.10
2007,09,19,02,47,10.20
2007,09,19,02,48,10.20
2007,09,19,02,49,10.20
2007,09,19,02,50,10.20
2007,09,19,02,51,10.20
2007,09,19,02,52,10.20
2007,09,19,02,53,10.20
2007,09,19,02,54,10.20
2007,09,19,02,55,10.30
2007,09,19,02,56,10.30
2007,09,19,02,57,10.30
2007,09,19,02,58,10.30
2007,09,19,02,59,10.30
2007,09,19,03,00,10.30
2007,09,19,03,01,10.30
2007,09,19,03,02,10.30
2007,09,19,03,03,10.30
2007,09,19,03,04,10.30
2007,09,19,03,05,10.30
2007,09,19,03,06,10.40
2007,09,19,03,07,10.40
2007,09,19,03,08,10.40
2007,09,19,03,09,10.40
2007,09,19,03,10,10.40
2007,09,19,03,11,10.40
2007,09,19,03,12,10.50
2007,09,19,03,13,10.50
2007,09,19,03,14,10.50
2007,09,19,03,15,10.60
2007,09,19,03,16,10.60
2007,09,19,03,17,10.60
2007,09,19,03,18,10.60
2007,09,19,03,19,10.60
2007,09,19,03,20,10.60
2007,09,19,03,21,10.60
2007,09,19,03,22,10.60
2007,09,19,03,23,10.60
2007,09,19,03,24,10.60
2007,09,19,03,25,10.60
2007,09,19,03,26,10.60
2007,09,19,03,27,10.60
2007,09,19,03,28,10.60
2007,09,19,03,29,10.60
2007,09,19,03,30,10.60
2007,09,19,03,31,10.60
2007,09,19,03,32,10.60
2007,09,19,03,33,10.60
2007,09,19,03,34,10.60
2007,09,19,03,35,10.60
2007,09,19,03,36,10.60
2007,09,19,03,37,10.60
2007,09,19,03,38,10.60
2007,09,19,03,39,10.60
2007,09,19,03,40,10.60
2007,09,19,03,41,10.60
2007,09,19,03,42,10.60
2007,09,19,03,43,10.70
2007,09,19,03,44,10.70
2007,09,19,03,45,10.70
2007,09,19,03,46,10.70
2007,09,19,03,47,10.70
2007,09,19,03,48,10.70
2007,09,19,03,49,10.70
2007,09,19,03,50,10.70
2007,09,19,03,51,10.70
2007,09,19,03,52,10.70
2007,09,19,03,53,10.60
2007,09,19,03,54,10.60
2007,09,19,03,55,10.60
2007,09,19,03,56,10.60
2007,09,19,03,57,10.50
2007,09,19,03,58,10.50
2007,09,19,03,59,10.50
2007,09,19,04,00,10.50
2007,09,19,04,01,10.50
2007,09,19,04,02,10.50
2007,09,19,04,03,10.50
2007,09,19,04,04,10.50
2007,09,19,04,05,10.50
2007,09,19,04,06,10.50
2007,09,19,04,07,10.50
2007,09,19,04,08,10.50
2007,09,19,04,09,10.50
2007,09,19,04,10,10.50
2007,09,19,04,11,10.50
2007,09,19,04,12,10.50
2007,09,19,04,13,10.50
2007,09,19,04,14,10.50
2007,09,19,04,15,10.60
2007,09,19,04,16,10.60
2007,09,19,04,17,10.60
2007,09,19,04,18,10.60
2007,09,19,04,19,10.60
2007,09,19,04,20,10.60
2007,09,19,04,21,10.60
2007,09,19,04,22,10.60
2007,09,19,04,23,10.60
2007,09,19,04,24,10.60
2007,09,19,04,25,10.60
2007,09,19,04,26,10.60
2007,09,19,04,27,10.60
2007,09,19,04,28,10.60
2007,09,19,04,29,10.60
2007,09,19,04,30,10.60
2007,09,19,04,31,10.60
2007,09,19,04,32,10.60
2007,09,19,04,33,10.60
2007,09,19,04,34,10.60
2007,09,19,04,35,10.60
2007,09,19,04,36,10.50
2007,09,19,04,37,10.60
2007,09,19,04,38,10.60
2007,09,19,04,39,10.50
2007,09,19,04,40,10.50
2007,09,19,04,41,10.50
2007,09,19,04,42,10.40
2007,09,19,04,43,10.40
2007,09,19,04,44,10.40
2007,09,19,04,45,10.40
2007,09,19,04,46,10.40
2007,09,19,04,47,10.40
2007,09,19,04,48,10.30
2007,09,19,04,49,10.30
2007,09,19,04,50,10.30
2007,09,19,04,51,10.30
2007,09,19,04,52,10.30
2007,09,19,04,53,10.30
2007,09,19,04,54,10.20
2007,09,19,04,55,10.20
2007,09,19,04,56,10.20
2007,09,19,04,57,10.20
2007,09,19,04,58,10.20
2007,09,19,04,59,10.20
2007,09,19,05,00,10.20
2007,09,19,05,01,10.20
2007,09,19,05,02,10.20
2007,09,19,05,03,10.20
2007,09,19,05,04,10.20
2007,09,19,05,05,10.20
2007,09,19,05,06,10.20
2007,09,19,05,07,10.20
2007,09,19,05,08,10.20
2007,09,19,05,09,10.20
2007,09,19,05,10,10.20
2007,09,19,05,11,10.20
2007,09,19,05,12,10.20
2007,09,19,05,13,10.20
2007,09,19,05,14,10.20
2007,09,19,05,15,10.20
2007,09,19,05,16,10.20
2007,09,19,05,17,10.20
2007,09,19,05,18,10.20
2007,09,19,05,19,10.20
2007,09,19,05,20,10.20
2007,09,19,05,21,10.20
2007,09,19,05,22,10.20
2007,09,19,05,23,10.20
2007,09,19,05,24,10.20
2007,09,19,05,25,10.20
2007,09,19,05,26,10.20
2007,09,19,05,27,10.20
2007,09,19,05,28,10.30
2007,09,19,05,29,10.30
2007,09,19,05,30,10.30
2007,09,19,05,31,10.20
2007,09,19,05,32,10.20
2007,09,19,05,33,10.20
2007,09,19,05,34,10.20
2007,09,19,05,35,10.20
2007,09,19,05,36,10.20
2007,09,19,05,37,10.20
2007,09,19,05,38,10.20
2007,09,19,05,39,10.20
2007,09,19,05,40,10.20
2007,09,19,05,41,10.20
2007,09,19,05,42,10.20
2007,09,19,05,43,10.30
2007,09,19,05,44,10.30
2007,09,19,05,45,10.30
2007,09,19,05,46,10.30
2007,09,19,05,47,10.20
2007,09,19,05,48,10.20
2007,09,19,05,49,10.20
2007,09,19,05,50,10.20
2007,09,19,05,51,10.20
2007,09,19,05,52,10.20
2007,09,19,05,53,10.20
2007,09,19,05,54,10.20
2007,09,19,05,55,10.20
2007,09,19,05,56,10.20
2007,09,19,05,57,10.20
2007,09,19,05,58,10.20
2007,09,19,05,59,10.20
2007,09,19,06,00,10.20
2007,09,19,06,01,10.30
2007,09,19,06,02,10.30
2007,09,19,06,03,10.30
2007,09,19,06,04,10.30
2007,09,19,06,05,10.30
2007,09,19,06,06,10.20
2007,09,19,06,07,10.20
2007,09,19,06,08,10.20
2007,09,19,06,09,10.30
2007,09,19,06,10,10.30
2007,09,19,06,11,10.20
2007,09,19,06,12,10.20
2007,09,19,06,13,10.20
2007,09,19,06,14,10.20
2007,09,19,06,15,10.20
2007,09,19,06,16,10.20
2007,09,19,06,17,10.20
2007,09,19,06,18,10.20
2007,09,19,06,19,10.20
2007,09,19,06,20,10.20
2007,09,19,06,21,10.20
2007,09,19,06,22,10.30
2007,09,19,06,23,10.30
2007,09,19,06,24,10.30
2007,09,19,06,25,10.30
2007,09,19,06,26,10.30
2007,09,19,06,27,10.40
2007,09,19,06,28,10.40
2007,09,19,06,29,10.40
2007,09,19,06,30,10.40
2007,09,19,06,31,10.40
2007,09,19,06,32,10.40
2007,09,19,06,33,10.40
2007,09,19,06,34,10.40
2007,09,19,06,35,10.40
2007,09,19,06,36,10.40
2007,09,19,06,37,10.50
2007,09,19,06,38,10.50
2007,09,19,06,39,10.50
2007,09,19,06,40,10.50
2007,09,19,06,41,10.50
2007,09,19,06,42,10.60
2007,09,19,06,43,10.60
2007,09,19,06,44,10.60
2007,09,19,06,45,10.50
2007,09,19,06,46,10.50
2007,09,19,06,47,10.60
2007,09,19,06,48,10.60
2007,09,19,06,49,10.60
2007,09,19,06,50,10.60
2007,09,19,06,51,10.70
2007,09,19,06,52,10.70
2007,09,19,06,53,10.70
2007,09,19,06,54,10.70
2007,09,19,06,55,10.70
2007,09,19,06,56,10.70
2007,09,19,06,57,10.70
2007,09,19,06,58,10.80
2007,09,19,06,59,10.80
2007,09,19,07,00,10.80
2007,09,19,07,01,10.70
2007,09,19,07,02,10.70
2007,09,19,07,03,10.80
2007,09,19,07,04,10.80
2007,09,19,07,05,10.80
2007,09,19,07,06,10.80
2007,09,19,07,07,10.70
2007,09,19,07,08,10.70
2007,09,19,07,09,10.70
2007,09,19,07,10,10.70
2007,09,19,07,11,10.70
2007,09,19,07,12,10.70
2007,09,19,07,13,10.70
2007,09,19,07,14,10.70
2007,09,19,07,15,10.70
2007,09,19,07,16,10.80
2007,09,19,07,17,10.70
2007,09,19,07,18,10.70
2007,09,19,07,19,10.70
2007,09,19,07,20,10.70
2007,09,19,07,21,10.70
2007,09,19,07,22,10.70
2007,09,19,07,23,10.70
2007,09,19,07,24,10.70
2007,09,19,07,25,10.70
2007,09,19,07,26,10.80
2007,09,19,07,27,10.80
2007,09,19,07,28,10.80
2007,09,19,07,29,10.80
2007,09,19,07,30,10.80
2007,09,19,07,31,10.90
2007,09,19,07,32,10.90
2007,09,19,07,33,11.00
2007,09,19,07,34,11.00
2007,09,19,07,35,11.00
2007,09,19,07,36,11.00
2007,09,19,07,37,11.10
2007,09,19,07,38,11.10
2007,09,19,07,39,11.10
2007,09,19,07,40,11.10
2007,09,19,07,41,11.10
2007,09,19,07,42,11.20
2007,09,19,07,43,11.20
2007,09,19,07,44,11.20
2007,09,19,07,45,11.20
2007,09,19,07,46,11.20
2007,09,19,07,47,11.20
2007,09,19,07,48,11.20
2007,09,19,07,49,11.20
2007,09,19,07,50,11.20
2007,09,19,07,51,11.30
2007,09,19,07,52,11.30
2007,09,19,07,53,11.30
2007,09,19,07,54,11.40
2007,09,19,07,55,11.40
2007,09,19,07,56,11.50
2007,09,19,07,57,11.50
2007,09,19,07,58,11.60
2007,09,19,07,59,11.60
2007,09,19,08,00,11.60
2007,09,19,08,01,11.70
2007,09,19,08,02,11.70
2007,09,19,08,03,11.70
2007,09,19,08,04,11.70
2007,09,19,08,05,11.70
2007,09,19,08,06,11.70
2007,09,19,08,07,11.80
2007,09,19,08,08,11.80
2007,09,19,08,09,11.80
2007,09,19,08,10,11.80
2007,09,19,08,11,11.80
2007,09,19,08,12,11.90
2007,09,19,08,13,11.90
2007,09,19,08,14,11.90
2007,09,19,08,15,12.00
2007,09,19,08,16,12.00
2007,09,19,08,17,12.10
2007,09,19,08,18,12.10
2007,09,19,08,19,12.10
2007,09,19,08,20,12.10
2007,09,19,08,21,12.10
2007,09,19,08,22,12.20
2007,09,19,08,23,12.20
2007,09,19,08,24,12.20
2007,09,19,08,25,12.20
2007,09,19,08,26,12.20
2007,09,19,08,27,12.20
2007,09,19,08,28,12.20
2007,09,19,08,29,12.20
2007,09,19,08,30,12.30
2007,09,19,08,31,12.30
2007,09,19,08,32,12.30
2007,09,19,08,33,12.30
2007,09,19,08,34,12.30
2007,09,19,08,35,12.30
2007,09,19,08,36,12.40
2007,09,19,08,37,12.40
2007,09,19,08,38,12.40
2007,09,19,08,39,12.50
2007,09,19,08,40,12.50
2007,09,19,08,41,12.50
2007,09,19,08,42,12.60
2007,09,19,08,43,12.60
2007,09,19,08,44,12.60
2007,09,19,08,45,12.60
2007,09,19,08,46,12.70
2007,09,19,08,47,12.70
2007,09,19,08,48,12.70
2007,09,19,08,49,12.70
2007,09,19,08,50,12.70
2007,09,19,08,51,12.80
2007,09,19,08,52,12.80
2007,09,19,08,53,12.80
2007,09,19,08,54,12.80
2007,09,19,08,55,12.90
2007,09,19,08,56,12.90
2007,09,19,08,57,13.00
2007,09,19,08,58,13.10
2007,09,19,08,59,13.10
2007,09,19,09,00,13.10
2007,09,19,09,01,13.10
2007,09,19,09,02,13.10
2007,09,19,09,03,13.20
2007,09,19,09,04,13.20
2007,09,19,09,05,13.20
2007,09,19,09,06,13.20
2007,09,19,09,07,13.20
2007,09,19,09,08,13.30
2007,09,19,09,09,13.30
2007,09,19,09,10,13.30
2007,09,19,09,11,13.30
2007,09,19,09,12,13.30
2007,09,19,09,13,13.30
2007,09,19,09,14,13.30
2007,09,19,09,15,13.40
2007,09,19,09,16,13.40
2007,09,19,09,17,13.30
2007,09,19,09,18,13.40
2007,09,19,09,19,13.40
2007,09,19,09,20,13.50
2007,09,19,09,21,13.50
2007,09,19,09,22,13.60
2007,09,19,09,23,13.60
2007,09,19,09,24,13.60
2007,09,19,09,25,13.60
2007,09,19,09,26,13.70
2007,09,19,09,27,13.80
2007,09,19,09,28,13.80
2007,09,19,09,29,13.80
2007,09,19,09,30,13.90
2007,09,19,09,31,13.90
2007,09,19,09,32,14.00
2007,09,19,09,33,14.00
2007,09,19,09,34,14.10
2007,09,19,09,35,14.00
2007,09,19,09,36,13.90
2007,09,19,09,37,13.90
2007,09,19,09,38,14.00
2007,09,19,09,39,14.10
2007,09,19,09,40,14.10
2007,09,19,09,41,14.10
2007,09,19,09,42,14.20
2007,09,19,09,43,14.20
2007,09,19,09,44,14.20
2007,09,19,09,45,14.20
2007,09,19,09,46,14.20
2007,09,19,09,47,14.20
2007,09,19,09,48,14.20
2007,09,19,09,49,14.20
2007,09,19,09,50,14.20
2007,09,19,09,51,14.30
2007,09,19,09,52,14.40
2007,09,19,09,53,14.40
2007,09,19,09,54,14.40
2007,09,19,09,55,14.40
2007,09,19,09,56,14.40
2007,09,19,09,57,14.40
2007,09,19,09,58,14.40
2007,09,19,09,59,14.50
2007,09,19,10,00,14.50
2007,09,19,10,01,14.60
2007,09,19,10,02,14.60
2007,09,19,10,03,14.60
2007,09,19,10,04,14.60
2007,09,19,10,05,14.60
2007,09,19,10,06,14.60
2007,09,19,10,07,14.60
2007,09,19,10,08,14.60
2007,09,19,10,09,14.60
2007,09,19,10,10,14.60
2007,09,19,10,11,14.70
2007,09,19,10,12,14.80
2007,09,19,10,13,14.90
2007,09,19,10,14,14.90
2007,09,19,10,15,14.90
2007,09,19,10,16,14.90
2007,09,19,10,17,14.90
2007,09,19,10,18,15.00
2007,09,19,10,19,15.00
2007,09,19,10,20,15.00
2007,09,19,10,21,15.00
2007,09,19,10,22,15.10
2007,09,19,10,23,15.20
2007,09,19,10,24,15.30
2007,09,19,10,25,15.30
2007,09,19,10,26,15.30
2007,09,19,10,27,15.30
2007,09,19,10,28,15.30
2007,09,19,10,29,15.30
2007,09,19,10,30,15.30
2007,09,19,10,31,15.30
2007,09,19,10,32,15.30
2007,09,19,10,33,15.30
2007,09,19,10,34,15.40
2007,09,19,10,35,15.50
2007,09,19,10,36,15.60
2007,09,19,10,37,15.60
2007,09,19,10,38,15.50
2007,09,19,10,39,15.40
2007,09,19,10,40,15.40
2007,09,19,10,41,15.30
2007,09,19,10,42,15.30
2007,09,19,10,43,15.40
2007,09,19,10,44,15.40
2007,09,19,10,45,15.40
2007,09,19,10,46,15.40
2007,09,19,10,47,15.40
2007,09,19,10,48,15.40
2007,09,19,10,49,15.40
2007,09,19,10,50,15.50
2007,09,19,10,51,15.60
2007,09,19,10,52,15.60
2007,09,19,10,53,15.60
2007,09,19,10,54,15.70
2007,09,19,10,55,15.70
2007,09,19,10,56,15.80
2007,09,19,10,57,15.90
2007,09,19,10,58,16.00
2007,09,19,10,59,16.00
2007,09,19,11,00,16.10
2007,09,19,11,01,16.00
2007,09,19,11,02,16.10
2007,09,19,11,03,16.10
2007,09,19,11,04,16.10
2007,09,19,11,05,16.20
2007,09,19,11,06,16.30
2007,09,19,11,07,16.30
2007,09,19,11,08,16.30
2007,09,19,11,09,16.30
2007,09,19,11,10,16.40
2007,09,19,11,11,16.40
2007,09,19,11,12,16.40
2007,09,19,11,13,16.40
2007,09,19,11,14,16.50
2007,09,19,11,15,16.40
2007,09,19,11,16,16.40
2007,09,19,11,17,16.30
2007,09,19,11,18,16.30
2007,09,19,11,19,16.30
2007,09,19,11,20,16.30
2007,09,19,11,21,16.40
2007,09,19,11,22,16.40
2007,09,19,11,23,16.40
2007,09,19,11,24,16.40
2007,09,19,11,25,16.50
2007,09,19,11,26,16.50
2007,09,19,11,27,16.50
2007,09,19,11,28,16.60
2007,09,19,11,29,16.70
2007,09,19,11,30,16.80
2007,09,19,11,31,16.80
2007,09,19,11,32,16.80
2007,09,19,11,33,16.70
2007,09,19,11,34,16.70
2007,09,19,11,35,16.70
2007,09,19,11,36,16.80
2007,09,19,11,37,16.80
2007,09,19,11,38,16.80
2007,09,19,11,39,16.80
2007,09,19,11,40,16.80
2007,09,19,11,41,16.80
2007,09,19,11,42,16.80
2007,09,19,11,43,16.80
2007,09,19,11,44,16.70
2007,09,19,11,45,16.70
2007,09,19,11,46,16.70
2007,09,19,11,47,16.70
2007,09,19,11,48,16.70
2007,09,19,11,49,16.70
2007,09,19,11,50,16.70
2007,09,19,11,51,16.80
2007,09,19,11,52,16.80
2007,09,19,11,53,16.80
2007,09,19,11,54,16.90
2007,09,19,11,55,16.90
2007,09,19,11,56,16.90
2007,09,19,11,57,16.90
2007,09,19,11,58,17.00
2007,09,19,11,59,17.00
2007,09,19,12,00,17.10
2007,09,19,12,01,17.20
2007,09,19,12,02,17.20
2007,09,19,12,03,17.20
2007,09,19,12,04,17.30
2007,09,19,12,05,17.40
2007,09,19,12,06,17.40
2007,09,19,12,07,17.50
2007,09,19,12,08,17.60
2007,09,19,12,09,17.60
2007,09,19,12,10,17.70
2007,09,19,12,11,17.70
2007,09,19,12,12,17.70
2007,09,19,12,13,17.70
2007,09,19,12,14,17.70
2007,09,19,12,15,17.70
2007,09,19,12,16,17.70
2007,09,19,12,17,17.70
2007,09,19,12,18,17.70
2007,09,19,12,19,17.80
2007,09,19,12,20,17.70
2007,09,19,12,21,17.80
2007,09,19,12,22,17.80
2007,09,19,12,23,17.80
2007,09,19,12,24,17.90
2007,09,19,12,25,17.90
2007,09,19,12,26,17.90
2007,09,19,12,27,17.80
2007,09,19,12,28,17.80
2007,09,19,12,29,17.80
2007,09,19,12,30,17.80
2007,09,19,12,31,17.80
2007,09,19,12,32,17.80
2007,09,19,12,33,17.80
2007,09,19,12,34,17.80
2007,09,19,12,35,17.90
2007,09,19,12,36,17.80
2007,09,19,12,37,17.80
2007,09,19,12,38,17.70
2007,09,19,12,39,17.60
2007,09,19,12,40,17.50
2007,09,19,12,41,17.40
2007,09,19,12,42,17.40
2007,09,19,12,43,17.40
2007,09,19,12,44,17.40
2007,09,19,12,45,17.40
2007,09,19,12,46,17.50
2007,09,19,12,47,17.60
2007,09,19,12,48,17.70
2007,09,19,12,49,17.80
2007,09,19,12,50,17.80
2007,09,19,12,51,17.90
2007,09,19,12,52,18.00
2007,09,19,12,53,18.00
2007,09,19,12,54,18.00
2007,09,19,12,55,18.00
2007,09,19,12,56,17.90
2007,09,19,12,57,17.90
2007,09,19,12,58,17.80
2007,09,19,12,59,17.90
2007,09,19,13,00,17.90
2007,09,19,13,01,17.90
2007,09,19,13,02,18.00
2007,09,19,13,03,18.00
2007,09,19,13,04,18.00
2007,09,19,13,05,18.00
2007,09,19,13,06,17.90
2007,09,19,13,07,17.90
2007,09,19,13,08,17.90
2007,09,19,13,09,18.00
2007,09,19,13,10,18.10
2007,09,19,13,11,18.10
2007,09,19,13,12,18.10
2007,09,19,13,13,18.10
2007,09,19,13,14,18.10
2007,09,19,13,15,18.20
2007,09,19,13,16,18.20
2007,09,19,13,17,18.20
2007,09,19,13,18,18.20
2007,09,19,13,19,18.20
2007,09,19,13,20,18.30
2007,09,19,13,21,18.40
2007,09,19,13,22,18.50
2007,09,19,13,23,18.60
2007,09,19,13,24,18.60
2007,09,19,13,25,18.60
2007,09,19,13,26,18.70
2007,09,19,13,27,18.70
2007,09,19,13,28,18.70
2007,09,19,13,29,18.60
2007,09,19,13,30,18.60
2007,09,19,13,31,18.60
2007,09,19,13,32,18.70
2007,09,19,13,33,18.70
2007,09,19,13,34,18.70
2007,09,19,13,35,18.70
2007,09,19,13,36,18.70
2007,09,19,13,37,18.60
2007,09,19,13,38,18.60
2007,09,19,13,39,18.50
2007,09,19,13,40,18.40
2007,09,19,13,41,18.50
2007,09,19,13,42,18.50
2007,09,19,13,43,18.50
2007,09,19,13,44,18.50
2007,09,19,13,45,18.50
2007,09,19,13,46,18.50
2007,09,19,13,47,18.50
2007,09,19,13,48,18.50
2007,09,19,13,49,18.40
2007,09,19,13,50,18.40
2007,09,19,13,51,18.50
2007,09,19,13,52,18.40
2007,09,19,13,53,18.40
2007,09,19,13,54,18.40
2007,09,19,13,55,18.30
2007,09,19,13,56,18.30
2007,09,19,13,57,18.30
2007,09,19,13,58,18.30
2007,09,19,13,59,18.30
2007,09,19,14,00,18.30
2007,09,19,14,01,18.40
2007,09,19,14,02,18.40
2007,09,19,14,03,18.40
2007,09,19,14,04,18.40
2007,09,19,14,05,18.40
2007,09,19,14,06,18.40
2007,09,19,14,07,18.30
2007,09,19,14,08,18.30
2007,09,19,14,09,18.30
2007,09,19,14,10,18.20
2007,09,19,14,11,18.30
2007,09,19,14,12,18.30
2007,09,19,14,13,18.30
2007,09,19,14,14,18.40
2007,09,19,14,15,18.40
2007,09,19,14,16,18.50
2007,09,19,14,17,18.50
2007,09,19,14,18,18.60
2007,09,19,14,19,18.60
2007,09,19,14,20,18.60
2007,09,19,14,21,18.70
2007,09,19,14,22,18.80
2007,09,19,14,23,18.80
2007,09,19,14,24,18.80
2007,09,19,14,25,18.80
2007,09,19,14,26,18.80
2007,09,19,14,27,18.90
2007,09,19,14,28,19.00
2007,09,19,14,29,19.00
2007,09,19,14,30,19.10
2007,09,19,14,31,19.10
2007,09,19,14,32,19.00
2007,09,19,14,33,19.00
2007,09,19,14,34,18.90
2007,09,19,14,35,18.90
2007,09,19,14,36,18.90
2007,09,19,14,37,18.90
2007,09,19,14,38,18.90
2007,09,19,14,39,18.90
2007,09,19,14,40,18.90
2007,09,19,14,41,18.90
2007,09,19,14,42,19.00
2007,09,19,14,43,19.00
2007,09,19,14,44,19.00
2007,09,19,14,45,19.10
2007,09,19,14,46,19.10
2007,09,19,14,47,19.10
2007,09,19,14,48,19.10
2007,09,19,14,49,19.10
2007,09,19,14,50,19.10
2007,09,19,14,51,19.00
2007,09,19,14,52,19.00
2007,09,19,14,53,19.10
2007,09,19,14,54,19.10
2007,09,19,14,55,19.10
2007,09,19,14,56,19.10
2007,09,19,14,57,19.10
2007,09,19,14,58,19.20
2007,09,19,14,59,19.20
2007,09,19,15,00,19.30
2007,09,19,15,01,19.30
2007,09,19,15,02,19.40
2007,09,19,15,03,19.40
2007,09,19,15,04,19.40
2007,09,19,15,05,19.40
2007,09,19,15,06,19.40
2007,09,19,15,07,19.30
2007,09,19,15,08,19.40
2007,09,19,15,09,19.40
2007,09,19,15,10,19.40
2007,09,19,15,11,19.50
2007,09,19,15,12,19.60
2007,09,19,15,13,19.60
2007,09,19,15,14,19.60
2007,09,19,15,15,19.60
2007,09,19,15,16,19.60
2007,09,19,15,17,19.60
2007,09,19,15,18,19.50
2007,09,19,15,19,19.50
2007,09,19,15,20,19.60
2007,09,19,15,21,19.60
2007,09,19,15,22,19.70
2007,09,19,15,23,19.70
2007,09,19,15,24,19.60
2007,09,19,15,25,19.70
2007,09,19,15,26,19.70
2007,09,19,15,27,19.70
2007,09,19,15,28,19.70
2007,09,19,15,29,19.70
2007,09,19,15,30,19.70
2007,09,19,15,31,19.70
2007,09,19,15,32,19.70
2007,09,19,15,33,19.70
2007,09,19,15,34,19.80
2007,09,19,15,35,19.80
2007,09,19,15,36,19.80
2007,09,19,15,37,19.80
2007,09,19,15,38,19.80
2007,09,19,15,39,19.70
2007,09,19,15,40,19.70
2007,09,19,15,41,19.70
2007,09,19,15,42,19.70
2007,09,19,15,43,19.70
2007,09,19,15,44,19.70
2007,09,19,15,45,19.70
2007,09,19,15,46,19.70
2007,09,19,15,47,19.70
2007,09,19,15,48,19.70
2007,09,19,15,49,19.70
2007,09,19,15,50,19.70
2007,09,19,15,51,19.70
2007,09,19,15,52,19.70
2007,09,19,15,53,19.80
2007,09,19,15,54,19.70
2007,09,19,15,55,19.70
2007,09,19,15,56,19.70
2007,09,19,15,57,19.70
2007,09,19,15,58,19.70
2007,09,19,15,59,19.60
2007,09,19,16,00,19.60
2007,09,19,16,01,19.60
2007,09,19,16,02,19.60
2007,09,19,16,03,19.60
2007,09,19,16,04,19.60
2007,09,19,16,05,19.60
2007,09,19,16,06,19.60
2007,09,19,16,07,19.70
2007,09,19,16,08,19.70
2007,09,19,16,09,19.80
2007,09,19,16,10,19.80
2007,09,19,16,11,19.80
2007,09,19,16,12,19.80
2007,09,19,16,13,19.70
2007,09,19,16,14,19.80
2007,09,19,16,15,19.90
2007,09,19,16,16,19.90
2007,09,19,16,17,19.90
2007,09,19,16,18,19.90
2007,09,19,16,19,19.90
2007,09,19,16,20,19.90
2007,09,19,16,21,19.80
2007,09,19,16,22,19.80
2007,09,19,16,23,19.80
2007,09,19,16,24,19.80
2007,09,19,16,25,19.80
2007,09,19,16,26,19.80
2007,09,19,16,27,19.80
2007,09,19,16,28,19.80
2007,09,19,16,29,19.80
2007,09,19,16,30,19.80
2007,09,19,16,31,19.80
2007,09,19,16,32,19.70
2007,09,19,16,33,19.80
2007,09,19,16,34,19.80
2007,09,19,16,35,19.80
2007,09,19,16,36,19.80
2007,09,19,16,37,19.80
2007,09,19,16,38,19.80
2007,09,19,16,39,19.80
2007,09,19,16,40,19.80
2007,09,19,16,41,19.80
2007,09,19,16,42,19.70
2007,09,19,16,43,19.70
2007,09,19,16,44,19.80
2007,09,19,16,45,19.80
2007,09,19,16,46,19.80
2007,09,19,16,47,19.80
2007,09,19,16,48,19.80
2007,09,19,16,49,19.80
2007,09,19,16,50,19.80
2007,09,19,16,51,19.80
2007,09,19,16,52,19.70
2007,09,19,16,53,19.70
2007,09,19,16,54,19.70
2007,09,19,16,55,19.70
2007,09,19,16,56,19.70
2007,09,19,16,57,19.80
2007,09,19,16,58,19.80
2007,09,19,16,59,19.80
2007,09,19,17,00,19.80
2007,09,19,17,01,19.90
2007,09,19,17,02,19.90
2007,09,19,17,03,20.00
2007,09,19,17,04,20.10
2007,09,19,17,05,20.10
2007,09,19,17,06,20.10
2007,09,19,17,07,20.10
2007,09,19,17,08,20.10
2007,09,19,17,09,20.00
2007,09,19,17,10,19.90
2007,09,19,17,11,19.70
2007,09,19,17,12,19.60
2007,09,19,17,13,19.50
2007,09,19,17,14,19.40
2007,09,19,17,15,19.40
2007,09,19,17,16,19.40
2007,09,19,17,17,19.40
2007,09,19,17,18,19.40
2007,09,19,17,19,19.30
2007,09,19,17,20,19.30
2007,09,19,17,21,19.30
2007,09,19,17,22,19.20
2007,09,19,17,23,19.20
2007,09,19,17,24,19.10
2007,09,19,17,25,19.10